Regional Weather Roundup
Issued by NWS

Home | Current Version | Previous Version | Graphics & Text | Print | Product List | Glossary On
Versions: 1 2 3 4 5 6 7 8 9 10 11 12 13 14 15 16 17 18 19 20 21 22 23 24 25 26 27 28 29 30 31 32 33 34 35 36 37 38 39 40 41 42 43 44 45 46 47 48 49 50
718
ASUS43 KBIS 182302
RWRND

NORTH DAKOTA REGIONAL WEATHER ROUNDUP
NATIONAL WEATHER SERVICE BISMARCK ND
500 PM CST SAT NOV 18 2017

NOTE: "FAIR" INDICATES FEW OR NO CLOUDS BELOW 12,000 FEET WITH NO
SIGNIFICANT WEATHER AND/OR OBSTRUCTIONS TO VISIBILITY.


NDZ001>003-009>011-017-190000-
NORTHWEST NORTH DAKOTA

CITY           SKY/WX    TMP DP  RH WIND       PRES   REMARKS
WILLISTON      CLOUDY    28  15  58 S5        30.05F
MINOT          CLOUDY    25  13  60 W8        30.03F WCI  16
$$

NDZ018>021-031>035-040>046-190000-
SOUTHWEST NORTH DAKOTA

CITY           SKY/WX    TMP DP  RH WIND       PRES   REMARKS
BISMARCK       CLEAR     33  18  53 W8        30.11S
DICKINSON      CLOUDY    30  19  63 W8        30.05R
GARRISON         N/A     26  17  68 W6        30.05S WCI  19
HETTINGER ARPT CLOUDY    33  19  56 W12       30.10R
$$

NDZ004>008-012>016-024-026-027-054-190000-
NORTHEAST NORTH DAKOTA

CITY           SKY/WX    TMP DP  RH WIND       PRES   REMARKS
GRAND FORKS    PTCLDY    17   9  70 W10       30.05R WCI   5
GRND FRKS AFB  CLEAR     17   8  66 W12       30.04S WCI   4
DEVILS LAKE    CLEAR     16   8  71 W14       30.05R WCI   2
$$

NDZ022-023-025-028>030-036>039-047>053-190000-
SOUTHEAST NORTH DAKOTA

CITY           SKY/WX    TMP DP  RH WIND       PRES   REMARKS
FARGO          CLEAR     21   9  59 NW9       30.08R WCI  11
JAMESTOWN      CLEAR     21  11  65 W12       30.07R WCI   9
$$





USA.gov is the U.S. government's official web portal to all federal, state and local government web resources and services.